カタログに戻る

STARLINK-6133

運用中通信VLEO
NORAD 57134·PAYLOAD·🇺🇸 United States

打ち上げ Jun 23, 2023 から Cape Canaveral Space Force Station

Loading…

次のパス (今後24時間)

TLE

最新Source: CelesTrak SupGP

元期: Sep 14, 2026, 21:24 UTC

1 57134C 23090AK  26257.89215278  .00019654  00000+0  71191-3 0  2571
2 57134  43.0019 274.5074 0001185 278.1198  67.4411 15.27567796    18

AllMySatでSTARLINK-6133をリアルタイム追跡

Download on the App Store